Milwaukee Timmerman, WI

1:35 AM CDT on March 28, 2017 (GMT -0500)
Timmerman

Weather History for KMWC - December, 2011

Change the Weather History Date:

Thursday, December 15, 2011

  Actual Average Record
Temperature  
Mean Temperature 40 °F -  
Max Temperature 51 °F 35 °F 57 °F (1971)
Min Temperature 28 °F 21 °F -7 °F (1958)
Degree Days  
Heating Degree Days 26    
Moisture  
Dew Point 31 °F    
Average Humidity 73    
Maximum Humidity 100    
Minimum Humidity 47    
Precipitation  
Precipitation 0.01 in - - ()
Sea Level Pressure  
Sea Level Pressure 29.83 in    
Wind  
Wind Speed 14 mph (West)    
Max Wind Speed 24 mph    
Max Gust Speed 38 mph    
Visibility 9 miles    
Events Rain    
Averages and records for this station are not official NWS values.
T = Trace of Precipitation, MM = Missing Value Source: NWS Daily Summary

Daily Weather History Graph

Daily Weather History Graph

Search for Another Location

Airport or City:

Trip Planner

Search our weather history database for the weather conditions in past years. The results will help you decide how hot, cold, wet, or windy it might be!

Date:

Astronomy

Dec. 15, 2011 Rise Set
Actual Time 7:16 AM CST 4:17 PM CST
Civil Twilight 6:44 AM CST 4:50 PM CST
Nautical Twilight 6:08 AM CST 5:26 PM CST
Astronomical Twilight 5:33 AM CST 6:00 PM CST
Moon 9:50 PM CST (12/15) 10:26 AM CST (12/15)
Length of Visible Light 10h 05m
Length of Day
9h 01m
Waning Gibbous, 74% of the Moon is Illuminated
Dec 15
Waning Gibbous
Dec 17
Last Quarter
Dec 24
New
Jan 1
First Quarter
Jan 9
Full

Hourly Weather History & Observations

Time (CST) Temp. Windchill Dew Point Humidity Pressure Visibility Wind Dir Wind Speed Gust Speed Precip Events Conditions
12:15 AM 51.8 °F - 50.0 °F 94% 29.58 in 3.0 mi SW 11.5 mph 19.6 mph N/A Rain Rain
12:35 AM 51.8 °F - 50.0 °F 94% 29.57 in 3.0 mi SW 10.4 mph - N/A Rain Rain
12:55 AM 51.8 °F - 50.0 °F 94% 29.56 in 2.5 mi SSW 9.2 mph - 0.01 in   Drizzle
1:15 AM 51.8 °F - 50.0 °F 94% 29.55 in 7.0 mi SSW 13.8 mph - N/A Rain Light Rain
1:35 AM 51.8 °F - 51.8 °F 100% 29.56 in 10.0 mi SW 13.8 mph 19.6 mph N/A   Overcast
1:55 AM 51.8 °F - 50.0 °F 94% 29.55 in 10.0 mi SW 13.8 mph 21.9 mph N/A   Overcast
2:15 AM 51.8 °F - 50.0 °F 94% 29.56 in 10.0 mi SW 12.7 mph 18.4 mph N/A   Overcast
2:55 AM 51.8 °F - 48.2 °F 88% 29.56 in 10.0 mi WSW 16.1 mph 23.0 mph N/A   Overcast
3:15 AM 51.8 °F - 46.4 °F 82% 29.57 in 10.0 mi WSW 17.3 mph 27.6 mph N/A   Overcast
3:35 AM 51.8 °F - 44.6 °F 76% 29.56 in 10.0 mi WSW 19.6 mph 25.3 mph N/A   Overcast
3:55 AM 50.0 °F - 44.6 °F 82% 29.57 in 10.0 mi WSW 19.6 mph 24.2 mph N/A   Mostly Cloudy
4:15 AM 50.0 °F - 44.6 °F 82% 29.58 in 10.0 mi West 16.1 mph 26.5 mph N/A   Mostly Cloudy
4:35 AM 48.2 °F - 44.6 °F 87% 29.58 in 7.0 mi West 18.4 mph 27.6 mph N/A   Overcast
4:55 AM 46.4 °F 40.1 °F 42.8 °F 87% 29.59 in 10.0 mi West 15.0 mph 24.2 mph N/A   Overcast
5:15 AM 46.4 °F 40.4 °F 42.8 °F 87% 29.61 in 10.0 mi West 13.8 mph 20.7 mph N/A   Overcast
5:35 AM 44.6 °F 37.8 °F 41.0 °F 87% 29.62 in 10.0 mi West 15.0 mph 21.9 mph N/A   Overcast
6:45 AM 44.6 °F 39.2 °F 39.2 °F 81% 29.65 in 10.0 mi West 10.4 mph 21.9 mph N/A   Overcast
7:45 AM 42.8 °F 38.0 °F 39.2 °F 87% 29.66 in 10.0 mi West 8.1 mph 19.6 mph N/A   Mostly Cloudy
9:45 AM 41.0 °F 34.3 °F 37.4 °F 87% 29.72 in 10.0 mi West 11.5 mph 23.0 mph N/A   Overcast
10:45 AM 39.2 °F 30.8 °F 35.6 °F 87% 29.74 in 10.0 mi West 15.0 mph 21.9 mph N/A   Overcast
11:45 AM 39.2 °F 30.8 °F 33.8 °F 81% 29.76 in 10.0 mi West 15.0 mph 26.5 mph N/A   Overcast
12:45 PM 37.4 °F 27.8 °F 33.8 °F 87% 29.78 in 10.0 mi West 17.3 mph 29.9 mph N/A   Overcast
1:45 PM 33.8 °F 22.2 °F 26.6 °F 75% 29.82 in 7.0 mi West 20.7 mph 33.4 mph N/A   Overcast
2:45 PM 32.0 °F 19.5 °F 23.0 °F 69% 29.86 in 10.0 mi West 21.9 mph 33.4 mph N/A   Overcast
3:45 PM 33.8 °F 22.5 °F 21.2 °F 60% 29.91 in 10.0 mi West 19.6 mph 33.4 mph N/A   Overcast
4:45 PM 33.8 °F 23.5 °F 21.2 °F 60% 29.94 in 10.0 mi West 16.1 mph 23.0 mph N/A   Overcast
5:45 PM 33.8 °F 23.9 °F 21.2 °F 60% 29.99 in 10.0 mi West 15.0 mph 25.3 mph N/A   Overcast
6:45 PM 33.8 °F 23.5 °F 19.4 °F 56% 30.02 in 10.0 mi WNW 16.1 mph 29.9 mph N/A   Overcast
7:45 PM 30.2 °F 18.9 °F 14.0 °F 51% 30.07 in 10.0 mi WNW 16.1 mph 26.5 mph N/A   Scattered Clouds
8:15 PM 30.2 °F 17.4 °F 14.0 °F 51% 30.08 in 10.0 mi NW 20.7 mph 29.9 mph N/A   Mostly Cloudy
8:35 PM 32.0 °F 19.2 °F 14.0 °F 48% 30.10 in 10.0 mi WNW 23.0 mph 29.9 mph N/A   Overcast
8:45 PM 30.2 °F 16.5 °F 12.2 °F 47% 30.11 in 10.0 mi WNW 24.2 mph 38.0 mph N/A   Overcast
8:55 PM 30.2 °F 20.2 °F 14.0 °F 51% 30.11 in 10.0 mi NW 12.7 mph 28.8 mph N/A   Overcast
9:35 PM 30.2 °F 17.1 °F 12.2 °F 47% 30.14 in 10.0 mi WNW 21.9 mph 27.6 mph N/A   Mostly Cloudy
9:55 PM 30.2 °F 20.2 °F 12.2 °F 47% 30.14 in 10.0 mi West 12.7 mph 23.0 mph N/A   Clear
10:15 PM 30.2 °F 20.8 °F 14.0 °F 51% 30.16 in 10.0 mi WNW 11.5 mph - N/A   Clear
10:35 PM 30.2 °F 20.8 °F 14.0 °F 51% 30.18 in 10.0 mi West 11.5 mph 16.1 mph N/A   Clear
10:55 PM 28.4 °F 19.1 °F 14.0 °F 55% 30.18 in 10.0 mi West 10.4 mph 16.1 mph N/A   Clear
11:15 PM 28.4 °F 20.4 °F 15.8 °F 59% 30.20 in 10.0 mi West 8.1 mph - N/A   Clear
11:35 PM 28.4 °F 20.4 °F 15.8 °F 59% 30.20 in 10.0 mi West 8.1 mph - N/A   Clear
11:55 PM 28.4 °F 19.7 °F 15.8 °F 59% 30.21 in 10.0 mi West 9.2 mph 17.3 mph N/A   Clear